TimeEDT,TemperatureF,Dew PointF,Humidity,Sea Level PressureIn,VisibilityMPH,Wind Direction,Wind SpeedMPH,Gust SpeedMPH,PrecipitationIn,Events,Conditions,WindDirDegrees,DateUTC
12:51 AM,70.0,69.1,97,29.81,3.0,Calm,Calm,-,N/A,,Partly Cloudy,0,2012-06-23 04:51:00
1:51 AM,70.0,69.1,97,29.82,4.0,Calm,Calm,-,N/A,,Clear,0,2012-06-23 05:51:00
3:09 AM,71.1,69.1,93,29.84,2.5,WNW,3.5,-,0.00,,Overcast,300,2012-06-23 07:09:00
4:51 AM,71.1,68.0,90,29.82,5.0,Calm,Calm,-,N/A,,Mostly Cloudy,0,2012-06-23 08:51:00
4:58 AM,71.1,69.1,93,29.85,4.0,Variable,4.6,-,N/A,,Mostly Cloudy,0,2012-06-23 08:58:00
5:23 AM,70.0,68.0,93,29.86,5.0,Variable,3.5,-,N/A,,Mostly Cloudy,0,2012-06-23 09:23:00
5:51 AM,69.1,66.9,93,29.84,7.0,NNE,3.5,-,N/A,,Partly Cloudy,30,2012-06-23 09:51:00
6:17 AM,70.0,68.0,93,29.87,2.0,Calm,Calm,-,N/A,,Partly Cloudy,0,2012-06-23 10:17:00
6:26 AM,70.0,69.1,97,29.87,1.8,Calm,Calm,-,N/A,,Scattered Clouds,0,2012-06-23 10:26:00
6:34 AM,70.0,69.1,97,29.88,1.8,Variable,4.6,-,N/A,,Scattered Clouds,0,2012-06-23 10:34:00
6:39 AM,71.1,69.1,93,29.88,2.0,Variable,3.5,-,N/A,,Mostly Cloudy,0,2012-06-23 10:39:00
7:51 AM,70.0,64.9,84,29.87,10.0,Variable,3.5,-,N/A,,Clear,0,2012-06-23 11:51:00
8:51 AM,71.1,62.1,73,29.88,10.0,WNW,4.6,-,N/A,,Clear,300,2012-06-23 12:51:00
9:51 AM,73.0,60.1,64,29.88,10.0,WNW,6.9,-,N/A,,Clear,300,2012-06-23 13:51:00
10:51 AM,77.0,59.0,54,29.88,10.0,Variable,3.5,-,N/A,,Clear,0,2012-06-23 14:51:00
11:51 AM,81.0,59.0,47,29.88,10.0,North,-9999.0,-,N/A,,Clear,0,2012-06-23 15:51:00
12:51 PM,82.0,53.1,37,29.88,10.0,Variable,5.8,-,N/A,,Clear,0,2012-06-23 16:51:00
1:51 PM,82.0,55.0,39,29.88,10.0,Variable,3.5,-,N/A,,Scattered Clouds,0,2012-06-23 17:51:00
2:51 PM,82.0,53.1,37,29.88,10.0,NW,8.1,-,N/A,,Clear,310,2012-06-23 18:51:00
3:51 PM,82.0,55.0,39,29.88,10.0,Variable,6.9,-,N/A,,Partly Cloudy,0,2012-06-23 19:51:00
4:51 PM,82.0,52.0,35,29.89,10.0,North,-9999.0,-,N/A,,Partly Cloudy,0,2012-06-23 20:51:00
5:51 PM,82.0,52.0,35,29.90,10.0,Variable,3.5,-,N/A,,Scattered Clouds,0,2012-06-23 21:51:00
6:51 PM,81.0,51.1,35,29.89,10.0,WNW,6.9,-,N/A,,Clear,290,2012-06-23 22:51:00
7:51 PM,80.1,48.9,34,29.91,10.0,WNW,9.2,-,N/A,,Clear,300,2012-06-23 23:51:00
8:51 PM,79.0,48.9,35,29.93,10.0,Variable,3.5,-,N/A,,Clear,0,2012-06-24 00:51:00
9:51 PM,75.0,55.0,50,29.96,10.0,NNE,3.5,-,N/A,,Clear,30,2012-06-24 01:51:00
10:51 PM,72.0,55.9,57,29.98,10.0,NNE,4.6,-,N/A,,Clear,30,2012-06-24 02:51:00